EW5295 Weather Reports


time (UTC)temp
C
wind
direction
speed
KPH
gust
KPH
rain 1hr
cm
rain 24hr
cm
rain mn
cm
humidity
%
barometer
mb
20260901203048 17 196 0.0 1.6 0.00 0.00 0.00 76 1010.3
20260901201535 17 149 0.0 0.0 0.00 0.00 0.00 76 1010.2
20260901200055 17 135 0.0 0.0 0.00 0.00 0.00 76 1010.3
20260901194546 17 192 0.0 0.0 0.00 0.00 0.00 79 1010.3
20260901193042 17 150 0.0 0.0 0.00 0.00 0.00 80 1010.5
20260901191602 16 151 0.0 0.0 0.00 0.00 0.00 82 1010.5
20260901190033 16 168 0.0 0.0 0.00 0.00 0.00 83 1010.7
20260901184534 16 169 0.0 0.0 0.00 0.00 0.00 85 1010.8
20260901183044 16 181 0.0 1.6 0.00 0.00 0.00 86 1010.9
20260901181523 16 161 0.0 0.0 0.00 0.00 0.00 87 1010.9
20260901180019 15 160 0.0 0.0 0.00 0.00 0.00 89 1010.9
20260901174519 15 161 0.0 0.0 0.00 0.00 0.00 90 1010.9
20260901173018 15 161 0.0 0.0 0.00 0.00 0.00 92 1010.9
20260901171518 14 162 0.0 0.0 0.00 0.00 0.00 93 1010.8
20260901170016 14 167 0.0 0.0 0.00 0.00 0.00 93 1010.7
20260901164516 14 167 0.0 0.0 0.00 0.00 0.00 94 1010.7
20260901163015 13 167 0.0 0.0 0.00 0.00 0.00 94 1010.8
20260901161525 13 167 0.0 0.0 0.00 0.00 0.00 94 1010.8
20260901160109 13 167 0.0 0.0 0.00 0.00 0.00 94 1010.7
20260901154554 13 167 0.0 0.0 0.00 0.00 0.00 93 1010.8
20260901153050 13 167 0.0 0.0 0.00 0.00 0.00 93 1010.8
20260901151542 -17 0.0 0.0 0.00 0.00 0.00 1010.7
20260901150039 -17 0.0 0.0 0.00 0.00 0.00 1010.5
20260901144538 -17 0.0 0.0 0.00 0.00 0.00 1010.3
20260901143026 -17 0.0 0.0 0.00 0.00 0.00 1010.4
20260901141524 -17 0.0 0.0 0.00 0.00 0.00 1010.2
20260901140015 -17 0.0 0.0 0.00 0.00 0.00 1010.2
20260901134511 -17 0.0 0.0 0.00 0.00 0.00 1010.1
20260901133056 -17 0.0 0.0 0.00 0.00 0.00 1010.0
20260901131550 -17 0.0 0.0 0.00 0.00 0.00 1010.0
20260901130046 -17 0.0 0.0 0.00 0.00 0.00 1009.9
20260901124542 -17 0.0 0.0 0.00 0.00 0.00 1009.8
20260901123038 -17 0.0 0.0 0.00 0.00 0.00 1009.8
20260901121533 -17 0.0 0.0 0.00 0.00 0.00 1009.8
20260901120032 13 170 0.0 0.0 0.00 0.00 0.00 91 1009.8
20260901114533 12 146 0.0 0.0 0.00 0.00 0.00 92 1009.8
20260901113020 12 146 0.0 0.0 0.00 0.00 0.00 93 1009.8
20260901111519 12 146 0.0 0.0 0.00 0.00 0.00 92 1009.7
20260901110016 12 146 0.0 0.0 0.00 0.00 0.00 91 1009.5
20260901104516 12 146 0.0 0.0 0.00 0.00 0.00 91 1009.5
20260901103013 12 146 0.0 1.6 0.00 0.00 0.00 91 1009.4
20260901101526 12 161 0.0 0.0 0.00 0.00 0.00 90 1009.4
20260901100010 12 162 0.0 1.6 0.00 0.00 0.00 90 1009.4
20260901094509 12 156 0.0 0.0 0.00 0.00 0.00 89 1009.3
20260901093049 13 156 0.0 0.0 0.00 0.00 0.00 89 1009.2
20260901091555 13 156 0.0 0.0 0.00 0.00 0.00 88 1009.0
20260901090028 13 156 0.0 0.0 0.00 0.00 0.00 88 1008.8
20260901084536 13 156 0.0 0.0 0.00 0.00 0.00 88 1008.9
20260901083014 13 157 0.0 0.0 0.00 0.00 0.00 87 1008.9
20260901081513 13 157 0.0 0.0 0.00 0.00 0.00 87 1008.9
20260901080016 14 158 0.0 0.0 0.00 0.00 0.00 86 1008.9
20260901074506 14 148 0.0 1.6 0.00 0.00 0.00 84 1008.9
20260901073002 15 163 0.0 0.0 0.00 0.00 0.00 82 1008.8
20260901071559 15 163 0.0 0.0 0.00 0.00 0.00 81 1008.7
20260901070114 16 163 0.0 0.0 0.00 0.00 0.00 78 1008.5
20260901064604 16 163 0.0 0.0 0.00 0.00 0.00 76 1008.3
20260901063051 17 163 0.0 0.0 0.00 0.00 0.00 74 1008.1
20260901061529 17 161 0.0 0.0 0.00 0.00 0.00 73 1007.9
20260901060025 18 161 0.0 0.0 0.00 0.00 0.00 72 1007.9
20260901054522 18 161 0.0 0.0 0.00 0.00 0.00 70 1007.7
20260901053023 19 165 0.0 0.0 0.00 0.00 0.00 68 1007.4
20260901051518 20 146 0.0 3.2 0.00 0.00 0.00 68 1007.5
20260901050018 20 178 0.0 1.6 0.00 0.00 0.00 67 1007.5
20260901044515 20 130 0.0 1.6 0.00 0.00 0.00 66 1007.5
20260901043025 20 117 0.0 1.6 0.00 0.00 0.00 66 1007.3
20260901041515 21 191 0.0 0.0 0.00 0.00 0.00 65 1007.0
20260901040012 21 150 0.0 0.0 0.00 0.00 0.00 60 1006.9
20260901034509 22 150 0.0 0.0 0.00 0.00 0.00 54 1006.7
20260901033008 21 150 0.0 0.0 0.00 0.00 0.00 56 1006.4
20260901031506 21 150 0.0 0.0 0.00 0.00 0.00 55 1006.1
20260901030043 22 150 0.0 0.0 0.00 0.00 0.00 53 1006.0
20260901024548 22 150 0.0 0.0 0.00 0.00 0.00 52 1006.1
20260901023027 23 150 0.0 0.0 0.00 0.00 0.00 51 1006.1
20260901021527 24 150 0.0 0.0 0.00 0.00 0.00 49 1006.1
20260901020018 25 150 0.0 0.0 0.00 0.00 0.00 47 1006.2
20260901014515 25 150 0.0 1.6 0.00 0.00 0.00 46 1006.2
20260901013013 26 161 0.0 0.0 0.00 0.00 0.00 45 1006.1
20260901011522 26 129 0.0 0.0 0.00 0.00 0.00 45 1006.2
20260901010010 26 150 0.0 1.6 0.00 0.00 0.00 43 1006.2
20260901004509 27 132 0.0 1.6 0.00 0.00 0.00 39 1006.3
20260901003051 27 132 0.0 1.6 0.00 0.00 0.00 38 1006.3
20260901001551 27 132 0.0 1.6 0.00 0.00 0.00 38 1006.4
20260901000037 27 161 0.0 1.6 0.00 0.00 0.00 39 1006.4
20260831234533 27 167 0.0 1.6 0.00 0.00 0.00 37 1006.5
20260831233011 27 138 0.0 1.6 0.00 0.00 0.00 36 1006.6
20260831231519 27 167 0.0 0.0 0.00 0.00 0.00 36 1006.6
20260831230056 27 212 0.0 1.6 0.00 0.00 0.00 39 1006.7
20260831224619 27 161 0.0 3.2 0.00 0.00 0.00 39 1006.9
20260831223037 27 232 0.0 1.6 0.00 0.00 0.00 40 1007.0
20260831221547 27 154 0.0 1.6 0.00 0.00 0.00 39 1007.1
20260831220032 26 161 0.0 0.0 0.00 0.00 0.00 44 1007.3
20260831214535 26 149 0.0 1.6 0.00 0.00 0.00 41 1007.3
20260831213026 26 148 0.0 1.6 0.00 0.00 0.00 45 1007.5
20260831211523 26 150 0.0 0.0 0.00 0.00 0.00 47 1007.7
20260831210020 26 184 0.0 1.6 0.00 0.00 0.00 46 1007.8
20260831204520 26 130 0.0 3.2 0.00 0.00 0.00 47 1007.9